OCO1CS EBCI-EBCI

Flight info

Callsign OCO1CS
Flight time 0h 27m
Altitude 8000
Route CIV DCT NIVOR
Aircraft DA40/L-SBDGRY/S

Departure

Time 2026-04-29 18:50
Airport Brussels South Charleroi Airport (EBCI)

Arrival

Time 2026-04-29 19:17
Airport Brussels South Charleroi Airport (EBCI)
Time Latitude Longitude Altitude Speed Heading
2026-04-29 18:34 50.46064 4.46384 612 ft 0 kts 154°
2026-04-29 18:42 50.46058 4.46383 612 ft 7 kts 209°
2026-04-29 18:42 50.46100 4.46350 612 ft 10 kts 346°
2026-04-29 18:42 50.46118 4.46343 615 ft 1 kts 343°
2026-04-29 18:42 50.46130 4.46299 612 ft 12 kts 244°
2026-04-29 18:43 50.46087 4.46161 618 ft 8 kts 245°
2026-04-29 18:43 50.46062 4.46054 619 ft 11 kts 256°
2026-04-29 18:43 50.46047 4.45942 618 ft 13 kts 264°
2026-04-29 18:43 50.46042 4.45901 615 ft 0 kts 258°
2026-04-29 18:44 50.46041 4.45895 615 ft 0 kts 251°
2026-04-29 18:45 50.46040 4.45892 615 ft 3 kts 253°
2026-04-29 18:45 50.46014 4.45789 619 ft 14 kts 247°
2026-04-29 18:45 50.45973 4.45648 620 ft 17 kts 246°
2026-04-29 18:45 50.45963 4.45616 624 ft 2 kts 246°
2026-04-29 18:46 50.45946 4.45560 622 ft 9 kts 248°
2026-04-29 18:46 50.45959 4.45510 620 ft 0 kts 338°
2026-04-29 18:47 50.46004 4.45481 624 ft 14 kts 336°
2026-04-29 18:47 50.46050 4.45490 627 ft 1 kts 65°
2026-04-29 18:50 50.46109 4.45703 631 ft 51 kts 69°
2026-04-29 18:50 50.46262 4.46316 846 ft 65 kts 67°
2026-04-29 18:50 50.46426 4.46989 1104 ft 68 kts 68°
2026-04-29 18:50 50.46622 4.47686 1452 ft 70 kts 67°
2026-04-29 18:51 50.46873 4.48445 1611 ft 83 kts 67°
2026-04-29 18:51 50.47142 4.49200 1795 ft 80 kts 59°
2026-04-29 18:51 50.47720 4.49321 1866 ft 116 kts 339°
2026-04-29 18:51 50.48387 4.48529 1771 ft 122 kts 337°
2026-04-29 18:52 50.49049 4.47682 1590 ft 124 kts 319°
2026-04-29 18:52 50.49084 4.46412 1584 ft 121 kts 233°
2026-04-29 18:52 50.48645 4.45281 1569 ft 122 kts 234°
2026-04-29 18:52 50.48241 4.44160 1663 ft 109 kts 234°
2026-04-29 18:53 50.47871 4.43190 1662 ft 101 kts 226°
2026-04-29 18:53 50.47474 4.42329 1682 ft 93 kts 225°
2026-04-29 18:53 50.47113 4.41480 1685 ft 93 kts 231°
2026-04-29 18:53 50.46690 4.40773 1741 ft 83 kts 182°
2026-04-29 18:54 50.46168 4.40729 1781 ft 76 kts 146°
2026-04-29 18:54 50.45689 4.40948 1516 ft 70 kts 141°
2026-04-29 18:54 50.45365 4.41402 1363 ft 60 kts 120°
2026-04-29 18:54 50.45163 4.41920 1221 ft 58 kts 95°
2026-04-29 18:55 50.45207 4.42530 997 ft 51 kts 68°
2026-04-29 18:55 50.45350 4.43044 891 ft 53 kts 64°
2026-04-29 18:55 50.45503 4.43607 793 ft 59 kts 65°
2026-04-29 18:55 50.45673 4.44219 698 ft 62 kts 64°
2026-04-29 18:56 50.45831 4.44778 632 ft 50 kts 64°
2026-04-29 18:56 50.45985 4.45310 640 ft 69 kts 65°
2026-04-29 18:56 50.46195 4.46065 845 ft 77 kts 65°
2026-04-29 18:56 50.46407 4.46839 1110 ft 77 kts 66°
2026-04-29 18:57 50.46654 4.47635 1350 ft 83 kts 65°
2026-04-29 18:57 50.46934 4.48423 1484 ft 85 kts 67°
2026-04-29 18:57 50.47320 4.49142 1504 ft 94 kts 31°
2026-04-29 18:57 50.47993 4.48869 1529 ft 110 kts 341°
2026-04-29 18:58 50.48629 4.48268 1538 ft 109 kts 338°
2026-04-29 18:58 50.48931 4.47150 1578 ft 122 kts 262°
2026-04-29 18:58 50.48606 4.45932 1556 ft 122 kts 240°
2026-04-29 18:58 50.48361 4.45138 1562 ft 122 kts 238°
2026-04-29 18:59 50.47948 4.43971 1614 ft 116 kts 233°
2026-04-29 18:59 50.47579 4.42961 1519 ft 101 kts 235°
2026-04-29 18:59 50.47282 4.42009 1435 ft 96 kts 237°
2026-04-29 18:59 50.46945 4.41086 1400 ft 99 kts 231°
2026-04-29 19:00 50.46428 4.40587 1392 ft 80 kts 167°
2026-04-29 19:00 50.45942 4.40754 1348 ft 70 kts 143°
2026-04-29 19:00 50.45539 4.41145 1289 ft 69 kts 134°
2026-04-29 19:00 50.45240 4.41658 1211 ft 61 kts 103°
2026-04-29 19:01 50.45135 4.42295 1089 ft 61 kts 85°
2026-04-29 19:01 50.45295 4.42905 949 ft 60 kts 67°
2026-04-29 19:01 50.45468 4.43479 801 ft 58 kts 68°
2026-04-29 19:01 50.45631 4.44065 717 ft 58 kts 65°
2026-04-29 19:02 50.45792 4.44641 643 ft 57 kts 65°
2026-04-29 19:02 50.45939 4.45157 619 ft 53 kts 62°
2026-04-29 19:02 50.46137 4.45835 771 ft 75 kts 65°
2026-04-29 19:02 50.46352 4.46592 1021 ft 75 kts 66°
2026-04-29 19:03 50.46602 4.47371 1231 ft 87 kts 63°
2026-04-29 19:03 50.46899 4.48227 1416 ft 87 kts 64°
2026-04-29 19:03 50.47240 4.49027 1507 ft 93 kts 46°
2026-04-29 19:03 50.47943 4.48820 1581 ft 118 kts 345°
2026-04-29 19:04 50.48629 4.48122 1586 ft 126 kts 319°
2026-04-29 19:04 50.48780 4.46774 1608 ft 131 kts 243°
2026-04-29 19:04 50.48391 4.45499 1605 ft 130 kts 238°
2026-04-29 19:04 50.47970 4.44243 1669 ft 132 kts 236°
2026-04-29 19:05 50.47528 4.42994 1760 ft 129 kts 243°
2026-04-29 19:05 50.47591 4.41673 1778 ft 117 kts 324°
2026-04-29 19:05 50.48042 4.41672 1902 ft 58 kts 73°
2026-04-29 19:05 50.48247 4.42308 1807 ft 75 kts 67°
2026-04-29 19:06 50.48530 4.43063 1680 ft 82 kts 68°
2026-04-29 19:06 50.48810 4.43863 1589 ft 84 kts 66°
2026-04-29 19:06 50.49393 4.45462 1493 ft 81 kts 74°
2026-04-29 19:07 50.49290 4.46269 1549 ft 81 kts 121°
2026-04-29 19:07 50.48932 4.46540 1563 ft 93 kts 157°
2026-04-29 19:07 50.48037 4.45995 1501 ft 119 kts 215°
2026-04-29 19:07 50.47549 4.44883 1469 ft 126 kts 237°
2026-04-29 19:08 50.47146 4.43656 1427 ft 128 kts 239°
2026-04-29 19:08 50.46783 4.42500 1341 ft 108 kts 243°
2026-04-29 19:08 50.46431 4.41613 1338 ft 85 kts 203°
2026-04-29 19:08 50.45956 4.41612 1279 ft 66 kts 143°
2026-04-29 19:09 50.45496 4.41859 1186 ft 74 kts 143°
2026-04-29 19:09 50.45126 4.42262 1105 ft 62 kts 81°
2026-04-29 19:09 50.45304 4.42928 901 ft 64 kts 69°
2026-04-29 19:09 50.45478 4.43533 782 ft 64 kts 66°
2026-04-29 19:10 50.45651 4.44125 681 ft 57 kts 66°
2026-04-29 19:10 50.45801 4.44668 633 ft 53 kts 65°
2026-04-29 19:10 50.45962 4.45211 619 ft 66 kts 62°
2026-04-29 19:10 50.46168 4.45962 837 ft 75 kts 64°
2026-04-29 19:11 50.46398 4.46719 1028 ft 82 kts 66°
2026-04-29 19:11 50.46671 4.47509 1280 ft 84 kts 63°
2026-04-29 19:11 50.46970 4.48299 1487 ft 89 kts 58°
2026-04-29 19:11 50.47633 4.48379 1545 ft 122 kts 342°
2026-04-29 19:12 50.48365 4.47685 1482 ft 126 kts 340°
2026-04-29 19:12 50.48959 4.46689 1455 ft 138 kts 278°
2026-04-29 19:12 50.48613 4.45341 1514 ft 130 kts 234°
2026-04-29 19:12 50.48327 4.44522 1547 ft 129 kts 235°
2026-04-29 19:13 50.47707 4.42870 1530 ft 136 kts 233°
2026-04-29 19:13 50.47241 4.41617 1580 ft 124 kts 236°
2026-04-29 19:13 50.46855 4.40563 1541 ft 99 kts 234°
2026-04-29 19:13 50.46521 4.39671 1540 ft 99 kts 232°
2026-04-29 19:14 50.46148 4.38727 1555 ft 102 kts 234°
2026-04-29 19:14 50.45724 4.38017 1590 ft 80 kts 174°
2026-04-29 19:14 50.45240 4.38150 1537 ft 70 kts 148°
2026-04-29 19:14 50.44766 4.38359 1491 ft 71 kts 148°
2026-04-29 19:15 50.44396 4.38713 1540 ft 58 kts 114°
2026-04-29 19:15 50.44322 4.39316 1514 ft 57 kts 86°
2026-04-29 19:15 50.44445 4.39903 1402 ft 58 kts 77°
2026-04-29 19:15 50.44621 4.40494 1292 ft 60 kts 69°
2026-04-29 19:16 50.44787 4.41122 1177 ft 68 kts 66°
2026-04-29 19:16 50.44974 4.41746 1153 ft 59 kts 69°
2026-04-29 19:16 50.45142 4.42343 1043 ft 59 kts 69°
2026-04-29 19:16 50.45303 4.42913 873 ft 58 kts 72°
2026-04-29 19:17 50.45480 4.43531 788 ft 68 kts 64°
2026-04-29 19:17 50.45673 4.44208 684 ft 65 kts 64°
2026-04-29 19:17 50.45840 4.44803 628 ft 57 kts 67°
2026-04-29 19:17 50.45976 4.45285 620 ft 35 kts 66°
2026-04-29 19:18 50.46045 4.45529 619 ft 20 kts 61°
2026-04-29 19:18 50.46087 4.45663 620 ft 21 kts 64°
2026-04-29 19:18 50.46174 4.45954 618 ft 27 kts 65°
2026-04-29 19:18 50.46217 4.46179 612 ft 17 kts 118°
2026-04-29 19:19 50.46145 4.46251 617 ft 7 kts 167°
2026-04-29 19:19 50.46059 4.46272 616 ft 13 kts 133°
2026-04-29 19:19 50.46046 4.46286 613 ft 1 kts 151°
2026-04-29 19:19 50.46045 4.46287 613 ft 0 kts 155°